EUTELSAT 7C

Last updated on Tue Oct 08 2024 00:02:41 GMT+0000 (Coordinated Universal Time)

1 44334U 19034B 24281.25842977 .00000059 00000+0 00000+0 0 9998 2 44334 0.0682 195.1965 0003196 340.9193 300.3444 1.00270839 637
UTC large
Height (km)
Speed (km/s)
/
Latitude / Longitude
Inclination (degrees)
Orbital Period (minutes)
Azimuth
Elevation
Range (km)
Doppler Factor

Next 0 passes for location: London (51.5072 / 0.1276)

Sorry there are no passes over London.